When you browse on this site, cookies collect data to enhance your experience and personalize the content and advertising you see.
Visit our Privacy Policy to learn more. By continuing to use the site, you agree to this use of cookies and data.
  • In Hungary
  • List of Countries
  • For 7 days
  • Water Temperature
  • Satellite Maps
  • Weather Map
  • News
  • Weather Widgets
  • user-avatar
    Login

    Hourly Weather Sevan

    Today, 13 December, Thursday

    Time Temperature Precipitation Wind Pressure Humidity
    00:00 +3°C° 1.2 mm 3 mps 634 mmHg 82%
    01:00 +3°C° 1.4 mm 3 mps 634 mmHg 83%
    02:00 +3°C° 1.4 mm 3 mps 634 mmHg 85%
    03:00 +3°C° 0 mm 4 mps 634 mmHg 88%
    04:00 +1°C° 0.9 mm 4 mps 634 mmHg 87%
    05:00 +1°C° 0.9 mm 4 mps 635 mmHg 87%
    06:00 +1°C° 0.9 mm 3 mps 635 mmHg 87%
    07:00 +1°C° 0.2 mm 4 mps 635 mmHg 84%
    08:00 +1°C° 0.2 mm 4 mps 636 mmHg 81%
    09:00 +1°C° 0.2 mm 4 mps 636 mmHg 79%
    10:00 +1°C° 0.1 mm 5 mps 637 mmHg 73%
    11:00 +2°C° 0.1 mm 5 mps 637 mmHg 68%
    12:00 +2°C° 0.1 mm 5 mps 638 mmHg 63%
    13:00 +2°C° 0 mm 5 mps 638 mmHg 62%
    14:00 +1°C° 0 mm 4 mps 638 mmHg 60%
    15:00 +1°C° 0 mm 4 mps 638 mmHg 59%
    16:00 0°C° 0 mm 3 mps 639 mmHg 60%
    17:00 -1°C° 0 mm 2 mps 639 mmHg 61%
    18:00 -3°C° 0 mm 2 mps 639 mmHg 62%
    19:00 -3°C° 0 mm 2 mps 640 mmHg 62%
    20:00 -4°C° 0 mm 2 mps 640 mmHg 62%
    21:00 -4°C° 0 mm 2 mps 640 mmHg 62%
    22:00 -4°C° 0 mm 2 mps 641 mmHg 63%
    23:00 -5°C° 0 mm 2 mps 641 mmHg 63%

    Tomorrow, 14 December, Friday

    Time Temperature Precipitation Wind Pressure Humidity
    00:00 -5°C° 0 mm 2 mps 641 mmHg 63%
    01:00 -5°C° 0 mm 2 mps 641 mmHg 63%
    02:00 -5°C° 0 mm 2 mps 641 mmHg 63%
    03:00 -6°C° 0 mm 2 mps 642 mmHg 63%
    04:00 -6°C° 0 mm 2 mps 642 mmHg 64%
    05:00 -6°C° 0 mm 2 mps 642 mmHg 64%
    06:00 -6°C° 0 mm 2 mps 642 mmHg 64%
    07:00 -5°C° 0 mm 2 mps 642 mmHg 64%
    08:00 -4°C° 0 mm 2 mps 643 mmHg 64%
    09:00 -3°C° 0 mm 2 mps 643 mmHg 64%
    10:00 -2°C° 0.1 mm 2 mps 643 mmHg 63%
    11:00 -1°C° 0.1 mm 3 mps 642 mmHg 63%
    12:00 0°C° 0.1 mm 3 mps 642 mmHg 63%
    13:00 0°C° 0.2 mm 3 mps 642 mmHg 65%
    14:00 0°C° 0.2 mm 3 mps 642 mmHg 68%
    15:00 0°C° 0.2 mm 3 mps 642 mmHg 70%
    16:00 +1°C° 0.2 mm 2 mps 642 mmHg 73%
    17:00 -1°C° 0.2 mm 2 mps 642 mmHg 76%
    18:00 -1°C° 0.2 mm 2 mps 642 mmHg 79%
    19:00 -2°C° 0.2 mm 2 mps 642 mmHg 79%
    20:00 -2°C° 0.2 mm 2 mps 643 mmHg 80%
    21:00 -2°C° 0.2 mm 2 mps 643 mmHg 80%
    22:00 -2°C° 0.1 mm 2 mps 643 mmHg 80%
    23:00 -3°C° 0.1 mm 2 mps 643 mmHg 80%

    Day after tomorrow, 15 December, Saturday

    Time Temperature Precipitation Wind Pressure Humidity
    00:00 -3°C° 0.1 mm 2 mps 643 mmHg 80%
    01:00 -3°C° 0 mm 2 mps 644 mmHg 80%
    02:00 -3°C° 0 mm 2 mps 644 mmHg 79%
    03:00 -4°C° 0 mm 2 mps 644 mmHg 78%
    04:00 -4°C° 0 mm 2 mps 644 mmHg 78%
    05:00 -4°C° 0 mm 2 mps 644 mmHg 78%
    06:00 -4°C° 0 mm 2 mps 644 mmHg 77%
    07:00 -4°C° 0 mm 2 mps 644 mmHg 75%
    08:00 -3°C° 0 mm 2 mps 645 mmHg 74%
    09:00 0°C° 0 mm 1 mps 645 mmHg 72%
    10:00 -1°C° 0 mm 2 mps 645 mmHg 69%
    11:00 +1°C° 0 mm 2 mps 645 mmHg 67%
    12:00 +2°C° 0 mm 2 mps 645 mmHg 65%
    13:00 +2°C° 0 mm 2 mps 644 mmHg 65%
    14:00 +2°C° 0 mm 2 mps 644 mmHg 65%
    15:00 +2°C° 0 mm 2 mps 644 mmHg 65%
    16:00 +1°C° 0 mm 2 mps 644 mmHg 65%
    17:00 -2°C° 0 mm 2 mps 644 mmHg 65%
    18:00 -1°C° 0 mm 1 mps 644 mmHg 65%
    19:00 -1°C° 0 mm 1 mps 644 mmHg 64%
    20:00 -1°C° 0 mm 1 mps 644 mmHg 62%
    21:00 -1°C° 0 mm 1 mps 644 mmHg 61%
    22:00 -1°C° 0 mm 1 mps 644 mmHg 61%
    23:00 -1°C° 0 mm 1 mps 644 mmHg 61%

    16 December, Sunday

    Time Temperature Precipitation Wind Pressure Humidity
    00:00 -1°C° 0 mm 1 mps 644 mmHg 61%
    01:00 -1°C° 0 mm 1 mps 644 mmHg 61%
    02:00 -1°C° 0 mm 1 mps 644 mmHg 61%
    03:00 -1°C° 0 mm 1 mps 644 mmHg 61%
    04:00 -1°C° 0 mm 1 mps 644 mmHg 61%
    05:00 -1°C° 0 mm 1 mps 643 mmHg 61%
    06:00 -2°C° 0 mm 1 mps 643 mmHg 61%
    07:00 -1°C° 0 mm 1 mps 644 mmHg 61%
    08:00 0°C° 0 mm 1 mps 644 mmHg 60%
    09:00 +1°C° 0 mm 1 mps 645 mmHg 60%
    10:00 +2°C° 0 mm 1 mps 644 mmHg 59%
    11:00 +3°C° 0 mm 2 mps 644 mmHg 58%
    12:00 +4°C° 0 mm 2 mps 644 mmHg 57%
    13:00 +4°C° 0 mm 2 mps 644 mmHg 58%
    14:00 +4°C° 0 mm 2 mps 644 mmHg 58%
    15:00 +4°C° 0 mm 2 mps 643 mmHg 59%
    16:00 +3°C° 0 mm 2 mps 643 mmHg 59%
    17:00 +3°C° 0 mm 1 mps 643 mmHg 59%
    18:00 +1°C° 0 mm 1 mps 643 mmHg 58%
    19:00 +1°C° 0 mm 1 mps 643 mmHg 58%
    20:00 +1°C° 0 mm 1 mps 643 mmHg 57%
    21:00 +1°C° 0 mm 1 mps 643 mmHg 57%
    22:00 +1°C° 0 mm 1 mps 643 mmHg 57%
    23:00 +1°C° 0 mm 1 mps 643 mmHg 58%

    17 December, Monday

    Time Temperature Precipitation Wind Pressure Humidity
    00:00 +1°C° 0 mm 1 mps 642 mmHg 59%
    01:00 +1°C° 0 mm 1 mps 642 mmHg 59%
    02:00 +1°C° 0 mm 1 mps 642 mmHg 60%
    03:00 +1°C° 0 mm 1 mps 642 mmHg 60%
    04:00 +1°C° 0 mm 1 mps 641 mmHg 61%
    05:00 +1°C° 0 mm 1 mps 641 mmHg 62%
    06:00 +1°C° 0 mm 1 mps 641 mmHg 62%
    07:00 +1°C° 0 mm 1 mps 641 mmHg 63%
    08:00 +2°C° 0 mm 1 mps 641 mmHg 63%
    09:00 +2°C° 0 mm 1 mps 641 mmHg 64%
    10:00 +3°C° 0 mm 1 mps 641 mmHg 63%
    11:00 +4°C° 0 mm 1 mps 641 mmHg 62%
    12:00 +5°C° 0 mm 1 mps 640 mmHg 62%
    13:00 +5°C° 0 mm 1 mps 640 mmHg 64%
    14:00 +5°C° 0 mm 1 mps 640 mmHg 66%
    15:00 +5°C° 0 mm 1 mps 639 mmHg 68%
    16:00 +4°C° 0.2 mm 1 mps 639 mmHg 72%
    17:00 +3°C° 0.2 mm 1 mps 639 mmHg 76%
    18:00 +2°C° 0.2 mm 1 mps 639 mmHg 79%
    19:00 +2°C° 0.6 mm 1 mps 640 mmHg 81%
    20:00 +2°C° 0.6 mm 1 mps 640 mmHg 82%
    21:00 +2°C° 0.6 mm 1 mps 640 mmHg 83%
    22:00 +2°C° 0.4 mm 1 mps 639 mmHg 83%
    23:00 +2°C° 0.4 mm 1 mps 639 mmHg 84%

    18 December, Tuesday

    Time Temperature Precipitation Wind Pressure Humidity
    00:00 +1°C° 0.4 mm 1 mps 639 mmHg 84%
    01:00 +1°C° 0.2 mm 1 mps 639 mmHg 84%
    02:00 +1°C° 0.2 mm 1 mps 639 mmHg 85%
    03:00 +1°C° 0.2 mm 1 mps 639 mmHg 85%
    04:00 +1°C° 0.1 mm 1 mps 639 mmHg 85%
    05:00 0°C° 0.1 mm 1 mps 638 mmHg 84%
    06:00 0°C° 0.1 mm 1 mps 638 mmHg 84%
    07:00 +1°C° 0.1 mm 1 mps 639 mmHg 83%
    08:00 0°C° 0.1 mm 0 mps 639 mmHg 82%
    09:00 +1°C° 0.1 mm 0 mps 640 mmHg 80%
    10:00 +2°C° 0.1 mm 0 mps 640 mmHg 79%
    11:00 +3°C° 0.1 mm 1 mps 640 mmHg 77%
    12:00 +4°C° 0.1 mm 1 mps 640 mmHg 75%
    13:00 +4°C° 0.1 mm 1 mps 640 mmHg 75%
    14:00 +4°C° 0.1 mm 1 mps 640 mmHg 75%
    15:00 +4°C° 0.1 mm 1 mps 640 mmHg 75%
    16:00 +3°C° 0.1 mm 1 mps 640 mmHg 77%
    17:00 +2°C° 0.1 mm 1 mps 640 mmHg 79%
    18:00 +1°C° 0.1 mm 1 mps 640 mmHg 81%
    19:00 +1°C° 0.1 mm 1 mps 640 mmHg 81%
    20:00 +1°C° 0.1 mm 1 mps 640 mmHg 81%
    21:00 0°C° 0.1 mm 1 mps 641 mmHg 80%
    22:00 0°C° 0.1 mm 1 mps 641 mmHg 80%
    23:00 0°C° 0.1 mm 1 mps 641 mmHg 80%
    Show more